Showing default

SKYSAT C1, 41601

Orbit data source: Space-Track

SKYSAT C1, 41601 is a payload satellite owned by Terra Bella (US) in SSO that was launched on Wed, 22 Jun 2016 UTC via a PSLV-XL launch vehicle from the Sirharikota (SRI). Payload-class satellites include a variety of spacecraft equipped with specific instruments for various scientific and technological missions. These include communications satellites like Starlink; space stations such as the ISS; scientific satellites like the Hubble; Earth observation satellites from companies like Planet Labs, Umbra, and HawkEye 360; GPS; miniature CubeSats for education and research; and military/defense satellites.

Loading next visibility...
Identifier
41601, 2016-040C
Orbit
SSO
Country
Flag of USUS
Related business
Manufacturer
SS/Loral (MDA)
Mission
Operational Commercial Imaging
Bus & Motor
SKYSAT-GEN2, Unknown motor
Mass
110 kg wet, 110 kg dry
Launch date (UTC)
2016-06-22 (10 years ago)
Launch vehicle
PSLV-XL
Launch site
Sirharikota (SRI)
Object type
Payload
Rocket body
Debris
Shape & HBR
Box, 1.0 m
Radar Cross Section
0.888 m², Medium (>0.1 m² and < 1m²)

Expand to show TLE details & history
Last TLE update: 1 day ago

TLE from 1 day ago
0 SKYSAT C1
1 41601U 16040C   26145.09058511  .00008356  00000-0  24157-3 0  9994
2 41601  96.9583 178.0678 0004455 103.9942 256.1798 15.35849586554328
Epoch: 2026-05-25T02:10Z
TLE epoch observation values (Epoch: 2026-05-25T02:10:26.553Z)
Latitude
-0.00008°
Longitude
-97.22619°
Altitude
462.251 km
Speed
7.635 km/s
True Right ascension
11h 52m 16s
True Declination
0° 00' 00"
Sunlit
Object was in full shadow at epoch
Visualization orbit readout
Latitude
Unknown
Longitude
Unknown
Altitude
Unknown
Speed
Unknown
Apparent Right ascension
Unknown
Apparent Declination
Unknown
Sunlit
N/A
Visualization observer readout
Local Sidereal Time
17:30:08
Azimuth
Unknown
Elevation
Unknown
Doppler factor
Unknown
Orbital elements
Apogee altitude
458.368 km
Perigee altitude
452.28 km
Semi-major axis
6,833.461 km
Eccentricity
0.00045
Inclination
96.9583°
RAAN
178.0678°
Arg. of periapsis
103.9942°
True anomaly
256.13023°
Mean anomaly
256.1798°
Eccentric anomaly
256.15502°
Mean motion
3.84222 °/min
Orbital period
93.7 mins
BSTAR
0.00024157
Loading maneuver chart data...
Computing Atmospheric mass density...

Documentation

Showing up to 5 results
|